ONEWEB-0215 (48800 NORAD) Tracking and Keplerian Element Data

This shows tracking and keplerian element data for the satellite.

Feedback or suggestion? Click here.




ElementValue
Catalog48800
NameONEWEB-0215
Epoch Orbit1067
Epoch Day211.25001157
Epoch Year2021
RAAN255.7563
Inclination87.5021
Eccentricity0.0010342
Argument of Perigee66.294
Mean Anonmoly79.1691
Mean Motion14.36582005
Decay Rate-0.00053168
L11 48800U 21045AK 21211.25001157 -.00053168 00000-0 -18250-1 0 9992
L22 48800 87.5021 255.7563 0010342 66.2940 79.1691 14.36582005 10676

Live tracking and technical data element details for ONEWEB-0215 (NORAD 48800). ONEWEB-0215 can be tracked NOW for your location showing map with azimuth and elevation plus other details from your city location.

Track the satellite on the map from your city or location and see movement details for azimuth, elevation, latitude, longitude, range, height, and movement on the map or in text.







IsCatalogInMostPopularTable: catalog: 48800, numindb: 19
Update: records affected: 1



GetName: 48800 ONEWEB-0215

Hit Count: updated at: Sat, 31 Jul 2021 14:49:53 GMT